Wind_Speed
17 14 11 12 13 15 18 21 18 17 17 13 12 12 12 15 13 15 14 12 11 10 8 10 12 14 14 12 12 10 8 9 7 8 8 9 10 11 12 13 13 14 14 16 19 22 23 27 27
14 14 13 11 14 15 16 19 16 16 14 12 12 10 10 14 14 13 16 12 10 9 9 10 12 12 13 12 10 9 9 8 8 9 9 10 11 12 13 13 13 12 17 18 20 24 26 28 28
18 20 17 16 17 18 15 16 19 13 11 11 9 12 10 14 14 14 13 11 9 8 10 10 12 12 12 10 9 10 9 8 7 7 8 10 11 12 13 13 14 15 17 20 22 24 28 28 28
21 11 16 15 20 20 19 18 18 15 13 10 9 11 10 10 13 13 12 9 8 9 10 10 11 11 9 9 10 10 9 8 7 6 7 10 11 12 13 14 14 16 18 22 22 24 28 28 27
15 13 14 17 23 23 19 17 17 15 13 12 10 9 12 11 12 13 11 10 8 8 8 8 9 8 8 10 9 10 11 10 9 8 9 10 11 12 13 14 15 16 18 20 21 24 27 30 29
18 17 20 19 20 20 18 16 16 15 13 12 12 11 13 10 8 11 10 10 7 6 5 6 6 8 9 9 9 12 14 13 11 11 11 11 11 13 13 14 16 17 18 22 22 23 27 28 27
20 20 20 19 16 14 14 10 11 10 8 11 11 12 14 9 8 8 9 7 5 7 6 4 6 7 8 10 8 14 16 16 15 15 14 14 13 13 14 15 16 19 19 20 21 22 23 25 25
17 16 18 17 15 13 11 12 13 11 10 10 8 6 11 8 6 6 8 5 5 5 4 2 5 7 9 11 11 15 14 16 17 16 17 17 14 13 15 13 17 18 18 19 19 20 20 21 22
16 16 16 13 13 14 14 11 12 14 13 11 7 6 8 7 5 6 6 5 5 5 5 5 9 7 9 10 12 14 15 16 17 16 16 15 14 14 15 14 17 20 18 19 18 17 15 16 18
16 16 15 12 9 13 16 13 13 13 11 10 11 6 6 6 6 6 6 7 6 6 9 11 12 8 9 11 12 12 14 14 17 17 15 14 16 16 15 14 15 16 17 17 15 13 11 12 14
16 16 15 13 11 11 10 11 11 9 10 5 4 6 7 7 7 6 6 10 11 10 12 13 10 8 10 13 11 10 12 12 15 14 14 14 16 18 15 15 12 14 13 13 14 12 8 9 10
14 15 17 14 11 8 12 10 9 9 7 7 5 5 4 5 7 6 6 9 10 10 12 13 12 10 9 12 13 10 10 12 14 12 11 11 12 16 13 12 10 10 10 11 9 12 11 8 6
14 16 19 16 13 10 11 10 9 9 7 8 6 4 4 5 5 6 6 8 9 10 8 11 12 10 9 10 13 11 9 9 10 11 9 9 10 12 13 10 8 7 7 5 8 4 8 8 5
17 15 20 16 13 13 10 7 6 7 7 6 5 5 5 5 5 5 5 9 8 9 10 10 10 9 8 9 10 11 10 11 9 6 6 5 6 6 8 6 5 4 3 3 2 3 6 7 5
12 12 16 16 12 11 8 6 6 6 6 7 5 4 6 6 6 6 4 9 9 9 9 10 9 7 8 6 6 6 7 7 9 4 3 4 5 8 5 6 4 2 3 3 5 6 6 5 4
3 8 5 11 10 7 10 10 7 6 7 6 8 8 6 3 8 7 7 9 8 7 9 10 10 8 8 6 6 7 6 5 4 2 3 3 3 4 5 3 3 4 6 9 8 8 8 8 7
8 7 6 10 8 5 9 7 7 8 7 8 9 10 11 7 8 7 7 7 9 8 4 8 9 9 8 8 5 4 5 4 2 3 3 3 2 3 1 2 2 3 4 4 4 7 8 11 12
9 10 10 11 11 8 8 9 8 6 5 7 8 7 7 5 5 7 5 7 8 8 8 7 10 8 7 7 6 3 1 2 3 4 4 5 6 5 3 2 2 4 5 4 5 6 5 9 10
13 8 7 4 6 11 6 11 12 7 9 6 3 6 6 5 4 5 5 5 8 8 9 10 7 6 4 4 5 4 6 7 7 8 7 6 7 7 6 6 6 6 7 6 4 6 7 8 9
16 14 9 11 8 11 10 8 6 9 8 11 9 8 8 6 5 8 9 9 8 8 9 9 8 7 6 8 8 9 8 11 8 11 11 7 9 11 11 12 14 12 10 10 9 9 8 8 8
10 11 7 8 9 8 11 9 8 8 7 8 8 6 7 8 8 9 11 11 10 9 8 8 9 8 9 9 10 11 11 12 12 12 11 9 12 12 12 13 15 17 16 12 12 14 14 13 14
5 6 6 4 12 14 9 8 6 4 3 1 5 7 7 6 8 7 7 8 9 9 10 11 12 12 12 11 10 10 12 14 14 14 17 19 14 14 16 16 16 19 18 15 16 19 19 23 23
12 10 9 7 9 10 11 12 6 7 8 8 8 6 6 9 10 12 9 8 9 11 11 13 13 14 13 14 14 16 14 17 20 19 16 15 16 14 15 16 17 18 18 19 18 20 21 24 26
17 16 14 13 12 9 11 13 12 13 9 13 12 6 4 7 8 9 11 11 13 15 16 16 17 19 20 20 20 19 20 18 20 20 17 16 17 15 15 16 15 17 20 21 21 19 18 18 22
21 20 21 20 19 15 15 20 13 18 13 12 9 10 9 11 13 14 14 16 17 21 23 24 24 25 26 24 23 20 20 21 21 20 21 16 15 17 18 18 20 21 20 22 21 21 23 23 21
25 26 26 25 26 26 27 25 21 19 16 14 12 16 17 17 17 18 17 20 20 24 28 30 31 30 29 25 25 26 28 25 25 23 23 19 23 23 25 25 26 24 23 23 26 27 29 30 31
27 29 25 29 30 30 27 30 23 23 20 19 18 17 19 23 19 20 21 24 25 27 33 29 34 28 27 24 26 35 33 29 26 29 30 27 28 29 33 32 30 30 29 28 30 31 33 36 34
33 31 33 32 34 35 34 34 30 24 26 26 27 24 25 24 21 24 26 28 32 32 31 28 34 23 28 28 27 27 29 28 26 28 30 31 31 33 37 37 36 37 37 35 37 36 38 39 38
35 34 35 32 36 40 39 36 32 30 27 27 29 30 29 29 30 31 30 34 38 38 36 35 30 34 45 39 34 39 21 24 25 26 27 32 35 37 40 36 36 37 39 39 38 38 37 41 44
34 36 38 38 37 37 38 37 33 33 30 32 31 32 31 31 33 36 35 36 38 43 42 42 52 47 22 22 22 32 28 25 29 26 31 35 36 39 51 43 42 44 44 43 43 45 45 44 44
Wind_Direction
134 131 114 110 113 114 117 117 128 122 111 106 103 101 108 104 100 105 92 77 69 67 75 93 103 102 95 84 68 66 66 85 102 102 107 112 114 115 113 108 98 91 87 87 88 84 76 73 74
141 144 113 110 115 132 125 123 118 109 118 115 112 110 110 105 105 99 86 80 77 82 90 94 94 87 75 63 59 59 63 68 82 94 103 107 110 110 107 103 93 86 85 89 88 82 75 74 74
139 129 116 107 123 123 124 132 127 107 121 131 114 118 99 99 96 92 83 83 78 83 94 102 95 80 68 61 49 56 62 68 73 84 99 101 107 104 102 94 84 81 91 92 84 85 81 78 78
122 125 130 132 127 128 125 129 128 124 120 128 114 93 88 91 100 88 78 75 75 80 82 84 80 66 62 53 57 71 69 66 63 73 92 104 105 101 93 85 80 84 91 93 93 91 85 81 76
128 127 137 137 131 127 120 120 126 131 125 128 106 100 101 95 86 75 73 68 53 69 82 90 91 84 54 46 51 71 78 75 73 83 95 105 98 93 85 80 77 90 99 99 89 83 78 73 69
131 117 125 129 128 124 126 131 130 127 127 119 114 102 90 75 65 67 63 61 56 53 70 85 100 76 48 32 48 82 74 66 66 76 82 83 81 79 77 72 72 84 91 86 84 81 78 74 69
132 130 130 127 127 129 124 116 119 124 107 124 123 116 95 70 51 59 55 58 60 57 52 60 97 77 46 28 69 78 70 66 66 71 74 74 73 73 68 65 79 94 99 96 92 83 79 77 72
122 132 130 130 129 146 134 147 147 122 97 104 100 77 105 90 54 51 65 60 38 45 52 48 90 82 47 53 72 81 81 81 78 73 69 67 71 70 69 75 83 91 93 88 86 84 81 80 76
117 99 100 98 114 139 156 154 138 120 108 106 96 62 93 89 64 56 62 64 39 36 57 103 115 79 63 78 94 93 93 90 89 85 78 73 73 71 72 75 83 86 88 90 87 86 89 86 83
125 116 104 97 112 132 140 146 139 132 133 139 129 121 107 92 75 59 62 62 52 80 103 114 113 87 90 93 92 97 94 99 102 100 93 85 82 78 78 77 82 84 95 89 92 88 87 89 89
137 128 112 116 120 133 120 130 133 129 134 129 110 133 131 111 94 75 54 86 98 88 107 102 97 100 96 96 94 99 100 99 105 111 108 105 100 93 93 84 90 88 90 76 80 82 74 71 96
145 122 124 122 124 121 121 124 128 133 133 126 113 119 130 120 116 100 81 107 111 99 99 98 96 87 97 108 105 95 95 104 107 109 107 98 93 100 100 96 85 73 83 70 77 67 49 32 62
141 135 128 134 134 140 130 138 136 128 137 138 128 116 140 136 140 129 113 126 128 113 107 104 102 97 103 112 110 103 94 101 109 112 112 105 102 103 105 108 90 80 89 69 52 35 31 35 46
151 144 133 141 141 144 144 150 147 146 148 143 146 130 139 119 122 121 119 139 149 141 121 106 99 107 110 108 113 113 105 108 105 88 82 64 76 87 106 117 111 105 83 100 91 355 9 356 348
145 135 138 143 150 143 143 160 183 171 157 154 161 155 167 113 89 80 99 141 156 164 135 120 124 125 124 123 112 112 116 125 126 77 102 81 75 75 76 38 31 18 323 333 336 340 343 334 297
111 145 135 143 154 162 161 169 176 185 163 166 172 167 188 129 87 65 68 134 147 158 146 141 145 143 133 127 123 131 139 149 152 165 161 165 137 120 109 57 13 343 320 322 327 331 314 307 298
125 98 108 96 89 112 148 154 165 181 181 192 198 181 186 178 108 84 82 113 150 156 169 139 140 144 134 127 136 146 160 163 190 231 253 259 269 289 280 226 269 269 253 269 306 318 310 307 317
108 97 117 116 109 118 135 143 140 132 144 202 214 206 194 162 127 122 116 132 155 164 163 154 145 145 142 150 152 161 194 154 168 212 251 265 274 263 262 269 275 282 290 302 277 268 276 294 297
154 105 130 118 116 143 129 125 118 104 127 128 156 204 214 191 164 161 157 170 160 166 168 173 173 168 178 254 277 251 233 241 238 218 219 249 273 290 314 319 306 311 315 318 331 313 301 285 294
199 233 116 90 92 133 101 158 109 130 124 129 135 147 175 198 203 208 186 195 188 186 185 197 210 218 219 232 244 253 257 262 256 266 263 254 257 260 278 289 295 291 289 292 296 288 283 290 290
172 183 131 129 132 150 150 130 122 111 128 122 134 140 147 168 196 209 197 206 208 206 209 213 218 224 232 236 234 242 249 254 273 277 267 266 256 271 284 282 287 283 274 287 294 310 297 299 292
211 224 219 167 161 147 156 173 169 196 213 176 157 169 173 173 208 221 202 200 213 214 214 217 216 218 223 236 243 248 257 260 254 251 263 267 253 271 284 287 292 292 303 297 292 285 296 296 302
245 263 254 238 179 184 233 236 249 214 265 260 246 241 219 227 237 265 239 202 225 223 222 214 222 226 227 232 243 250 256 252 248 252 267 285 248 255 277 293 295 295 297 300 303 300 291 282 299
268 270 262 266 241 208 248 250 262 273 257 259 263 230 206 243 253 248 275 251 243 249 251 242 233 235 236 241 246 255 248 251 244 244 261 262 246 253 264 278 277 288 291 289 293 301 305 308 302
250 262 274 268 263 241 252 259 258 265 265 267 291 283 258 257 274 285 284 281 262 263 258 254 247 243 241 244 252 255 258 251 237 240 258 246 240 263 271 269 262 277 280 291 280 286 298 296 295
257 260 260 274 274 276 269 265 260 256 246 258 273 282 281 273 271 271 276 271 266 270 258 254 258 252 251 253 254 250 249 234 231 239 239 249 260 268 269 272 271 275 278 281 281 284 286 297 293
261 259 264 266 272 270 268 282 275 267 251 244 262 273 276 278 269 268 275 272 263 264 262 270 263 262 267 262 260 259 239 224 229 232 240 248 257 262 263 261 267 270 270 277 281 283 282 285 287
260 260 261 264 274 277 284 285 283 267 261 259 259 255 262 270 271 267 273 272 270 260 259 257 265 281 253 241 250 249 244 237 234 237 245 255 258 262 264 264 264 272 272 277 278 277 283 278 284
248 258 261 257 258 267 275 277 279 278 275 267 263 254 253 268 268 268 267 267 267 261 254 255 253 266 253 237 240 239 231 252 263 269 273 272 276 287 267 275 270 283 291 285 281 286 287 283 284
240 247 255 260 264 266 269 271 277 279 278 273 268 266 265 263 263 262 261 259 260 255 239 246 250 242 268 276 281 307 311 306 304 298 290 291 292 290 290 294 283 282 283 282 278 281 281 281 279
Height
5891 5893 5895 5896 5899 5898 5900 5900 5901 5903 5904 5905 5907 5907 5907 5906 5908 5910 5909 5910 5910 5909 5909 5908 5909 5909 5910 5910 5910 5910 5909 5910 5910 5910 5909 5909 5909 5909 5909 5910 5911 5911 5910 5910 5909 5908 5908 5906 5904
5890 5893 5896 5898 5899 5901 5901 5903 5904 5905 5906 5907 5908 5909 5909 5909 5910 5911 5911 5912 5912 5911 5910 5909 5910 5910 5910 5910 5911 5910 5910 5910 5909 5909 5909 5909 5910 5910 5911 5912 5913 5914 5913 5913 5912 5912 5912 5910 5909
5892 5895 5898 5898 5900 5903 5905 5904 5905 5907 5909 5910 5910 5910 5912 5912 5913 5913 5913 5913 5914 5913 5912 5912 5912 5912 5912 5912 5911 5910 5910 5909 5909 5909 5910 5911 5912 5913 5913 5915 5916 5917 5916 5916 5916 5916 5914 5913 5913
5897 5898 5899 5901 5904 5905 5906 5907 5907 5909 5911 5912 5914 5914 5915 5915 5914 5915 5915 5915 5916 5915 5914 5914 5914 5914 5914 5914 5912 5911 5911 5910 5910 5911 5913 5914 5915 5916 5917 5918 5919 5920 5920 5920 5920 5919 5918 5917 5917
5900 5901 5902 5904 5905 5906 5907 5909 5910 5911 5912 5914 5916 5916 5916 5917 5917 5917 5917 5917 5918 5917 5916 5916 5915 5915 5916 5915 5913 5913 5912 5913 5913 5914 5915 5917 5918 5919 5920 5921 5922 5923 5923 5923 5924 5924 5922 5920 5919
5902 5903 5905 5907 5907 5908 5910 5911 5911 5912 5914 5916 5916 5917 5918 5919 5919 5918 5918 5918 5919 5918 5917 5917 5917 5917 5917 5916 5915 5915 5915 5916 5917 5918 5919 5921 5922 5922 5923 5924 5925 5926 5926 5927 5927 5926 5925 5924 5924
5904 5906 5907 5908 5910 5910 5912 5915 5916 5915 5916 5916 5917 5917 5919 5920 5921 5920 5920 5920 5919 5919 5918 5918 5918 5919 5919 5918 5918 5918 5918 5919 5921 5922 5923 5924 5925 5925 5927 5928 5928 5928 5928 5929 5929 5929 5929 5928 5928
5908 5910 5909 5910 5911 5912 5913 5915 5915 5917 5918 5918 5920 5920 5920 5921 5922 5921 5921 5920 5920 5919 5919 5918 5920 5920 5920 5921 5921 5920 5921 5921 5923 5925 5926 5927 5927 5929 5930 5930 5930 5930 5930 5931 5931 5931 5931 5931 5931
5912 5913 5913 5914 5914 5914 5916 5918 5918 5917 5919 5920 5921 5922 5922 5922 5922 5921 5921 5921 5920 5920 5919 5919 5921 5922 5922 5923 5922 5922 5923 5924 5926 5927 5928 5929 5930 5932 5932 5933 5933 5933 5933 5932 5932 5933 5933 5934 5933
5914 5915 5915 5916 5918 5917 5916 5918 5918 5919 5920 5921 5922 5923 5922 5923 5923 5922 5922 5921 5921 5921 5920 5920 5922 5923 5923 5924 5925 5926 5926 5927 5928 5928 5929 5930 5933 5934 5935 5935 5936 5936 5935 5935 5934 5934 5935 5936 5936
5914 5915 5913 5916 5919 5919 5919 5920 5921 5922 5922 5923 5924 5924 5923 5923 5924 5924 5923 5923 5923 5922 5922 5923 5924 5925 5925 5925 5927 5929 5929 5930 5931 5930 5930 5931 5933 5935 5936 5938 5938 5938 5939 5938 5937 5937 5937 5938 5938
5916 5916 5918 5919 5921 5921 5921 5922 5923 5924 5925 5924 5925 5926 5926 5924 5925 5925 5924 5924 5925 5924 5924 5925 5927 5927 5926 5927 5929 5931 5932 5932 5933 5934 5934 5935 5936 5936 5938 5939 5939 5940 5940 5939 5939 5938 5938 5937 5939
5919 5919 5918 5920 5921 5923 5922 5923 5924 5924 5925 5925 5925 5925 5926 5926 5925 5926 5925 5925 5925 5926 5927 5927 5928 5929 5930 5931 5931 5933 5934 5935 5935 5936 5936 5937 5938 5939 5938 5939 5939 5940 5941 5940 5940 5938 5939 5940 5939
5920 5922 5918 5919 5921 5924 5924 5924 5924 5925 5925 5925 5926 5926 5925 5927 5927 5926 5925 5926 5927 5927 5928 5929 5931 5932 5932 5933 5935 5935 5936 5937 5939 5939 5939 5939 5940 5942 5941 5940 5939 5940 5940 5940 5940 5940 5941 5941 5940
5923 5922 5921 5919 5921 5922 5924 5926 5926 5926 5927 5926 5926 5926 5926 5926 5926 5927 5927 5927 5928 5929 5929 5930 5931 5933 5934 5935 5936 5937 5938 5939 5940 5940 5940 5940 5941 5943 5944 5943 5942 5941 5941 5942 5942 5942 5941 5941 5941
5922 5922 5923 5925 5925 5925 5925 5925 5926 5926 5927 5926 5926 5927 5927 5927 5927 5928 5927 5928 5929 5930 5930 5931 5932 5933 5934 5935 5936 5937 5939 5940 5941 5941 5941 5941 5940 5941 5942 5943 5943 5943 5942 5942 5942 5942 5942 5941 5941
5922 5922 5924 5927 5927 5927 5927 5926 5926 5927 5927 5927 5927 5927 5927 5926 5927 5928 5928 5929 5930 5931 5931 5933 5933 5934 5935 5936 5936 5936 5937 5939 5940 5941 5941 5941 5941 5941 5941 5941 5941 5940 5940 5940 5941 5940 5939 5939 5939
5922 5924 5927 5928 5930 5929 5929 5928 5928 5928 5926 5926 5927 5928 5929 5928 5927 5929 5929 5930 5931 5932 5932 5932 5933 5933 5933 5934 5936 5938 5938 5938 5938 5940 5940 5939 5939 5939 5939 5940 5940 5941 5941 5941 5940 5938 5937 5937 5936
5922 5925 5926 5927 5929 5930 5930 5929 5928 5929 5928 5926 5927 5927 5928 5928 5927 5929 5931 5931 5932 5932 5931 5932 5933 5934 5934 5936 5935 5936 5936 5937 5938 5937 5937 5937 5937 5937 5937 5938 5939 5940 5939 5939 5939 5938 5938 5937 5936
5921 5923 5926 5927 5928 5929 5929 5930 5929 5929 5928 5928 5927 5927 5926 5926 5928 5930 5930 5930 5930 5931 5932 5932 5932 5933 5934 5934 5934 5934 5934 5934 5934 5937 5936 5934 5935 5935 5936 5936 5936 5936 5936 5935 5936 5937 5936 5936 5935
5922 5923 5924 5925 5925 5928 5929 5930 5929 5929 5928 5926 5926 5926 5926 5926 5928 5929 5929 5929 5928 5928 5929 5930 5930 5930 5931 5931 5932 5931 5930 5930 5932 5932 5931 5932 5933 5932 5934 5933 5933 5932 5931 5932 5931 5931 5932 5932 5932
5920 5921 5921 5922 5924 5926 5928 5929 5929 5928 5926 5925 5925 5924 5924 5927 5929 5929 5927 5927 5927 5927 5927 5928 5928 5929 5929 5928 5929 5928 5928 5929 5927 5926 5926 5926 5928 5928 5928 5928 5929 5928 5928 5928 5927 5926 5926 5924 5924
5918 5919 5921 5921 5923 5924 5926 5927 5927 5927 5926 5925 5921 5921 5922 5925 5926 5927 5925 5923 5923 5922 5922 5923 5925 5925 5925 5924 5924 5923 5923 5923 5923 5924 5923 5922 5924 5924 5924 5924 5924 5924 5923 5922 5921 5921 5920 5919 5918
5916 5916 5917 5917 5919 5922 5921 5923 5924 5923 5925 5924 5921 5918 5918 5920 5920 5921 5921 5920 5919 5920 5920 5920 5920 5919 5918 5918 5919 5919 5917 5918 5917 5919 5920 5919 5919 5919 5919 5919 5919 5919 5918 5917 5917 5917 5915 5914 5913
5914 5914 5913 5914 5914 5918 5917 5917 5920 5920 5920 5920 5921 5919 5918 5918 5918 5918 5917 5917 5917 5918 5917 5914 5912 5912 5912 5912 5912 5912 5913 5913 5912 5912 5912 5911 5911 5913 5914 5914 5913 5913 5913 5912 5911 5911 5910 5909 5908
5910 5911 5910 5909 5910 5911 5910 5912 5915 5915 5917 5917 5918 5917 5916 5916 5915 5915 5912 5912 5913 5913 5911 5909 5907 5905 5906 5908 5908 5905 5904 5905 5905 5905 5904 5904 5905 5906 5907 5907 5907 5906 5905 5905 5905 5904 5904 5903 5903
5904 5905 5908 5905 5904 5903 5906 5905 5911 5912 5913 5914 5914 5915 5914 5912 5912 5910 5909 5908 5907 5907 5904 5906 5901 5902 5904 5901 5901 5897 5896 5895 5895 5896 5897 5897 5897 5898 5898 5898 5898 5898 5896 5895 5895 5895 5895 5895 5894
5898 5900 5900 5901 5898 5896 5898 5898 5900 5905 5906 5907 5908 5909 5909 5909 5907 5906 5904 5903 5901 5900 5898 5897 5897 5895 5898 5896 5895 5890 5886 5886 5885 5887 5888 5889 5888 5889 5889 5889 5888 5889 5888 5887 5885 5884 5883 5884 5884
5892 5892 5893 5896 5894 5893 5893 5895 5895 5895 5897 5899 5899 5900 5902 5902 5902 5900 5900 5898 5895 5893 5892 5891 5892 5888 5882 5874 5873 5876 5866 5880 5881 5881 5880 5881 5881 5880 5880 5880 5878 5876 5877 5878 5875 5874 5874 5873 5872
5886 5886 5887 5886 5889 5889 5888 5889 5890 5890 5890 5890 5890 5890 5891 5893 5894 5894 5891 5889 5887 5882 5878 5877 5869 5866 5841 5852 5854 5864 5868 5871 5873 5876 5876 5873 5871 5872 5870 5870 5868 5866 5866 5866 5866 5865 5864 5864 5862